Shishmaref, AK

10:01 AM AKDT on July 24, 2017 (GMT -0800)
New Shishmaref

Weather History for PASH - April, 2013

Change the Weather History Date:

Wednesday, April 3, 2013

  Actual Average Record
Temperature  
Mean Temperature 8 °F -  
Max Temperature 17 °F 12 °F 33 °F (1998)
Min Temperature -2 °F 0 °F -23 °F (2012)
Degree Days  
Heating Degree Days 58    
Moisture  
Dew Point -6 °F    
Average Humidity 55    
Maximum Humidity 85    
Minimum Humidity 19    
Precipitation  
Precipitation 0.00 in - - ()
Sea Level Pressure  
Sea Level Pressure 30.41 in    
Wind  
Wind Speed 10 mph (ENE)    
Max Wind Speed 20 mph    
Max Gust Speed 25 mph    
Visibility 10 miles    
Events      
Averages and records for this station are not official NWS values.
T = Trace of Precipitation, MM = Missing Value Source: NWS Daily Summary

Daily Weather History Graph

Daily Weather History Graph

Search for Another Location

Airport or City:

Trip Planner

Search our weather history database for the weather conditions in past years. The results will help you decide how hot, cold, wet, or windy it might be!

Date:

Astronomy

Apr. 03, 2013 Rise Set
Actual Time 8:07 AM AKDT 10:09 PM AKDT
Civil Twilight 7:12 AM AKDT 11:04 PM AKDT
Nautical Twilight 5:57 AM AKDT 12:21 AM AKDT
Astronomical Twilight 3:42 AM AKDT 2:34 AM AKDT
Moon 6:41 AM AKDT (4/3) 12:57 PM AKDT (4/3)
Length of Visible Light 15h 52m
Length of Day
14h 01m
Last Quarter, 43% of the Moon is Illuminated
Apr 3
Last Quarter
Apr 10
New
Apr 18
First Quarter
Apr 25
Full
May 2
Last Quarter

Hourly Weather History & Observations

Time (AKDT) Temp. Windchill Dew Point Humidity Pressure Visibility Wind Dir Wind Speed Gust Speed Precip Events Conditions
12:16 AM 1.4 °F -9.9 °F -20.2 °F 36% 30.31 in 10.0 mi ENE 5.8 mph - N/A   Scattered Clouds
12:36 AM -0.4 °F -13.4 °F -18.4 °F 43% 30.31 in 10.0 mi ENE 6.9 mph - N/A   Clear
12:56 AM -0.4 °F -13.4 °F -18.4 °F 43% 30.32 in 10.0 mi ENE 6.9 mph - N/A   Mostly Cloudy
1:16 AM 3.2 °F -9.1 °F -7.6 °F 61% 30.32 in 10.0 mi ENE 6.9 mph - N/A   Overcast
1:36 AM 3.2 °F -10.3 °F -5.8 °F 66% 30.32 in 10.0 mi ENE 8.1 mph - N/A   Overcast
1:56 AM 5.0 °F -8.1 °F -7.6 °F 56% 30.33 in 10.0 mi ENE 8.1 mph - N/A   Overcast
2:16 AM 5.0 °F -9.1 °F -20.2 °F 30% 30.33 in 10.0 mi ENE 9.2 mph - N/A   Overcast
2:36 AM 3.2 °F -9.1 °F -25.6 °F 25% 30.33 in 10.0 mi ENE 6.9 mph - N/A   Overcast
2:56 AM 6.8 °F -4.8 °F -16.6 °F 34% 30.34 in 10.0 mi ENE 6.9 mph - N/A   Overcast
3:16 AM 6.8 °F -4.8 °F -11.2 °F 44% 30.34 in 10.0 mi ENE 6.9 mph - N/A   Overcast
3:36 AM 6.8 °F -6.9 °F -9.4 °F 48% 30.34 in 10.0 mi ENE 9.2 mph - N/A   Scattered Clouds
3:56 AM 5.0 °F -9.1 °F -7.6 °F 56% 30.34 in 10.0 mi ENE 9.2 mph - N/A   Clear
4:16 AM 5.0 °F -10.0 °F -7.6 °F 56% 30.34 in 10.0 mi ENE 10.4 mph - N/A   Clear
4:36 AM 3.2 °F -12.2 °F -5.8 °F 66% 30.35 in 10.0 mi ENE 10.4 mph - N/A   Clear
4:56 AM 3.2 °F -11.3 °F -9.4 °F 56% 30.35 in 10.0 mi ENE 9.2 mph - N/A   Clear
5:16 AM -0.4 °F -13.4 °F -29.2 °F 25% 30.36 in 10.0 mi East 6.9 mph - N/A   Clear
5:36 AM -2.2 °F -14.2 °F - N/A% 30.37 in 10.0 mi East 5.8 mph - N/A   Clear
5:56 AM -2.2 °F -16.8 °F -29.2 °F 27% 30.37 in 10.0 mi East 8.1 mph - N/A   Clear
6:16 AM -2.2 °F -16.8 °F -25.6 °F 32% 30.37 in 10.0 mi East 8.1 mph - N/A   Clear
6:36 AM -0.4 °F -13.4 °F -22.0 °F 36% 30.38 in 10.0 mi ENE 6.9 mph - N/A   Clear
6:56 AM -0.4 °F -14.7 °F -20.2 °F 39% 30.38 in 10.0 mi ENE 8.1 mph - N/A   Clear
7:16 AM -2.2 °F -16.8 °F -18.4 °F 46% 30.39 in 10.0 mi ENE 8.1 mph - N/A   Clear
7:36 AM -2.2 °F -16.8 °F -20.2 °F 42% 30.39 in 10.0 mi ENE 8.1 mph - N/A   Clear
7:56 AM -2.2 °F -18.9 °F -16.6 °F 50% 30.40 in 10.0 mi ENE 10.4 mph - N/A   Clear
8:16 AM -0.4 °F -14.7 °F -11.2 °F 60% 30.40 in 10.0 mi East 8.1 mph - N/A   Clear
8:36 AM -2.2 °F -16.8 °F -9.4 °F 71% 30.41 in 10.0 mi East 8.1 mph - N/A   Clear
8:56 AM -2.2 °F -16.8 °F -7.6 °F 78% 30.41 in 10.0 mi East 8.1 mph - N/A   Clear
9:16 AM -0.4 °F -14.7 °F -5.8 °F 78% 30.42 in 10.0 mi ENE 8.1 mph - N/A   Clear
9:36 AM 3.2 °F -13.1 °F - N/A% 30.42 in 10.0 mi East 11.5 mph - N/A   Clear
9:56 AM 3.2 °F -14.6 °F -31.0 °F 19% 30.42 in 10.0 mi ENE 13.8 mph - N/A   Clear
10:16 AM 3.2 °F -14.6 °F -23.8 °F 28% 30.42 in 10.0 mi ENE 13.8 mph - N/A   Clear
10:36 AM 5.0 °F -11.6 °F -18.4 °F 33% 30.43 in 10.0 mi ENE 12.7 mph - N/A   Clear
10:56 AM 6.8 °F -10.0 °F -14.8 °F 37% 30.43 in 10.0 mi ENE 13.8 mph - N/A   Clear
11:16 AM 6.8 °F -9.3 °F -13.0 °F 40% 30.44 in 10.0 mi East 12.7 mph - N/A   Clear
11:36 AM 6.8 °F -8.6 °F -9.4 °F 48% 30.44 in 10.0 mi ENE 11.5 mph - N/A   Clear
11:56 AM 8.6 °F -8.3 °F -5.8 °F 52% 30.43 in 10.0 mi ENE 15.0 mph - N/A   Clear
12:16 PM 10.4 °F -6.6 °F -0.4 °F 62% 30.43 in 10.0 mi ENE 16.1 mph - N/A   Clear
12:36 PM 10.4 °F -7.7 °F - N/A% 30.43 in 5.0 mi ENE 18.4 mph - N/A   Clear
12:56 PM 10.4 °F -7.2 °F -22.0 °F 22% 30.43 in 10.0 mi ENE 17.3 mph - N/A   Clear
1:16 PM 10.4 °F -7.2 °F -18.4 °F 26% 30.44 in 10.0 mi ENE 17.3 mph - N/A   Clear
1:36 PM 12.2 °F -3.1 °F -13.0 °F 32% 30.44 in 10.0 mi ENE 13.8 mph - N/A   Clear
1:56 PM 12.2 °F -5.3 °F -9.4 °F 38% 30.43 in 10.0 mi ENE 18.4 mph 24.2 mph N/A   Clear
2:16 PM 12.2 °F -5.8 °F -5.8 °F 45% 30.44 in 10.0 mi ENE 19.6 mph 25.3 mph N/A   Clear
2:36 PM 14.0 °F -2.0 °F 3.2 °F 62% 30.45 in 9.0 mi East 16.1 mph - N/A   Clear
2:56 PM 14.0 °F -2.5 °F -18.4 °F 22% 30.45 in 10.0 mi East 17.3 mph - N/A   Clear
3:16 PM 15.8 °F -0.6 °F -16.6 °F 23% 30.44 in 10.0 mi ENE 18.4 mph - N/A   Clear
3:36 PM 15.8 °F -0.2 °F -7.6 °F 35% 30.45 in 10.0 mi ENE 17.3 mph - N/A   Clear
3:56 PM 15.8 °F 1.4 °F 1.4 °F 53% 30.45 in 10.0 mi ENE 13.8 mph - N/A   Clear
4:16 PM 15.8 °F 1.4 °F 6.8 °F 68% 30.46 in 10.0 mi ENE 13.8 mph - N/A   Clear
4:36 PM 15.8 °F 2.1 °F 8.6 °F 73% 30.46 in 10.0 mi ENE 12.7 mph - N/A   Clear
4:56 PM 17.6 °F 3.7 °F 8.6 °F 68% 30.45 in 10.0 mi ENE 13.8 mph 18.4 mph N/A   Clear
5:16 PM 17.6 °F 2.7 °F 10.4 °F 73% 30.45 in 10.0 mi ENE 16.1 mph - N/A   Clear
5:36 PM 17.6 °F 3.7 °F 10.4 °F 73% 30.46 in 10.0 mi ENE 13.8 mph - N/A   Clear
5:56 PM 17.6 °F 3.2 °F 10.4 °F 73% 30.45 in 10.0 mi ENE 15.0 mph - N/A   Clear
6:16 PM 17.6 °F 3.2 °F 10.4 °F 73% 30.45 in 10.0 mi ENE 15.0 mph - N/A   Clear
6:36 PM 17.6 °F 3.7 °F 10.4 °F 73% 30.45 in 10.0 mi ENE 13.8 mph - N/A   Clear
6:56 PM 17.6 °F 5.0 °F 10.4 °F 73% 30.45 in 10.0 mi ENE 11.5 mph - N/A   Clear
7:16 PM 17.6 °F 3.2 °F 10.4 °F 73% 30.45 in 10.0 mi ENE 15.0 mph - N/A   Clear
7:36 PM 17.6 °F 3.7 °F 10.4 °F 73% 30.45 in 10.0 mi ENE 13.8 mph - N/A   Clear
7:56 PM 15.8 °F 0.9 °F 10.4 °F 79% 30.45 in 10.0 mi NE 15.0 mph - N/A   Clear
8:16 PM 15.8 °F 2.1 °F 10.4 °F 79% 30.45 in 10.0 mi ENE 12.7 mph - N/A   Clear
8:36 PM 15.8 °F 3.4 °F 8.6 °F 73% 30.45 in 10.0 mi ENE 10.4 mph - N/A   Clear
8:56 PM 15.8 °F 0.9 °F 8.6 °F 73% 30.45 in 10.0 mi NE 15.0 mph - N/A   Clear
9:16 PM 14.0 °F -0.8 °F 8.6 °F 79% 30.45 in 10.0 mi NE 13.8 mph - N/A   Clear
9:36 PM 14.0 °F -2.0 °F 8.6 °F 79% 30.44 in 10.0 mi NE 16.1 mph - N/A   Clear
9:56 PM 14.0 °F -3.0 °F 8.6 °F 79% 30.43 in 10.0 mi NE 18.4 mph - N/A   Clear
10:16 PM 14.0 °F -2.0 °F 8.6 °F 79% 30.44 in 10.0 mi ENE 16.1 mph - N/A   Clear
10:36 PM 12.2 °F -3.7 °F 8.6 °F 85% 30.45 in 10.0 mi ENE 15.0 mph - N/A   Clear
10:56 PM 12.2 °F -4.3 °F 6.8 °F 79% 30.45 in 10.0 mi ENE 16.1 mph - N/A   Clear
11:16 PM 12.2 °F -4.3 °F 8.6 °F 85% 30.45 in 10.0 mi ENE 16.1 mph - N/A   Clear
11:36 PM 12.2 °F -3.1 °F 6.8 °F 79% 30.45 in 10.0 mi ENE 13.8 mph - N/A   Clear
11:56 PM 10.4 °F -6.6 °F 6.8 °F 85% 30.45 in 10.0 mi ENE 16.1 mph - N/A   Clear